Regional Weather Roundup
Issued by NWS Bismarck, ND

Home | Current Version | Previous Version | Text Only | Print | Product List | Glossary On
Versions: 1 2 3 4 5 6 7 8 9 10 11 12 13 14 15 16 17 18 19 20 21 22 23 24 25 26 27 28 29 30 31 32 33 34 35 36 37 38 39 40 41 42 43 44 45 46 47 48 49 50
000
ASUS43 KBIS 241010
RWRBIS

NWR BROADCAST TEXT
NATIONAL WEATHER SERVICE BISMARCK ND
500 AM CDT SAT JUN 24 2017

NOTE: "FAIR" INDICATES FEW OR NO CLOUDS BELOW 12,000 FEET WITH NO
SIGNIFICANT WEATHER AND/OR OBSTRUCTIONS TO VISIBILITY.


CITY           SKY/WX    TMP DP  RH WIND       PRES   REMARKS
WILLISTON      PTCLDY    45  35  68 NW12      30.19S
MINOT          PTCLDY    45  41  86 W13       30.10R
MINOT AFB      MOCLDY    44  41  90 NW13      30.10R
BISMARCK       CLOUDY    49  43  80 W5        30.12R
DICKINSON      CLOUDY    43  35  73 NW6       30.16S
GARRISON         N/A     44  40  85 NW9       30.11R
HETTINGER ARPT PTCLDY    41  31  67 NW8       30.18S
JAMESTOWN      CLOUDY    50  41  71 NW15      30.04S
HAZEN          PTSUNNY   48  39  71 N8        30.16R
LINTON           N/A    N/A N/A N/A CALM      30.11F
MANDAN         CLOUDY    45  43  93 NW9       30.12S
STANLEY        FAIR      43  41  93 NW9       30.16R
WATFORD CITY   FAIR      43  36  75 W7        30.18R
$$

CITY           SKY/WX    TMP DP  RH WIND       PRES   REMARKS
GRAND FORKS    CLOUDY    52  43  71 W10       29.96S
GRAND FORKS AF DRIZZLE   52  41  66 NW13G18   29.97R
DEVILS LAKE    CLOUDY    48  42  80 NW14G20   30.02R
FARGO          MOCLDY    49  41  74 W9        29.99F
CAVALIER       PTSUNNY   50  45  81 NW10      29.96R
GRAFTON        CLOUDY    52  45  76 NW13      29.97R
LANGDON        CLOUDY    46  46 100 NW13      29.99R
ROLLA            N/A     46  45  93 NW16G22   30.03R
$$

CITY           SKY/WX    TMP DP  RH WIND       PRES   REMARKS
ABERDEEN       PTCLDY    40  38  93 SW5       30.07S
MOBRIDGE       PTCLDY    48  37  65 NW8       30.09S
BUFFALO          N/A     44  30  57 NW10      30.15F
RAPID CITY     PTCLDY    48  29  47 NW8       30.24F
GLASGOW        CLEAR     45  35  68 E5        30.24R
SIDNEY         CLEAR     43  34  70 NW7       30.22R
WOLF POINT     CLEAR     38  32  79 CALM      30.25R
GLENDIVE       MOCLDY    46  33  60 NW5       30.23R
MILES CITY     CLEAR     47  28  47 W8        30.24S
BAKER          CLEAR     41  30  65 N5        30.22S
$$

CITY           SKY/WX    TMP DP  RH WIND       PRES   REMARKS
BILLINGS       LGT RAIN  58  42  55 W6        30.29S
GREAT FALLS    CLOUDY    52  41  66 SW6       30.32S
REGINA         PTCLDY    34  34 100 NW7       30.22R
ESTEVAN        PTCLDY    41  39  93 NW13      30.17R
$$





USA.gov is the U.S. government's official web portal to all federal, state and local government web resources and services.